Regional Weather Roundup
Issued by NWS

Home | Current Version | Previous Version | Graphics & Text | Print | Product List | Glossary On
Versions: 1 2 3 4 5 6 7 8 9 10 11 12 13 14 15 16 17 18 19 20 21 22 23 24 25 26 27 28 29 30 31 32 33 34 35 36 37 38 39 40 41 42 43 44 45 46 47 48 49 50
000
ASUS43 KMKX 211711
RWRWI

WISCONSIN REGIONAL WEATHER ROUNDUP
NATIONAL WEATHER SERVICE MILWAUKEE/SULLIVAN WI
1200 PM CDT FRI JUL 21 2017

NOTE: "FAIR" INDICATES FEW OR NO CLOUDS BELOW 12,000 FEET WITH NO
SIGNIFICANT WEATHER AND/OR OBSTRUCTIONS TO VISIBILITY.

WIZ001-002-006>008-014>016-023>028-211800-
NORTHWEST WISCONSIN

CITY           SKY/WX    TMP DP  RH WIND       PRES   REMARKS
SUPERIOR ARPT  NOT AVBL
ASHLAND        MOSUNNY   72  68  87 N6        29.96S
HAYWARD        CLOUDY    78  67  68 S8        29.96F HX  80
SIREN          PTSUNNY   79  65  63 S10G18    29.93F HX  81
CUMBERLAND     CLOUDY    77  64  65 S12       29.96F
RICE LAKE      CLOUDY    78  67  68 S12G18    29.98S HX  80
CHETEK         CLOUDY    78  69  73 S9G20     29.96S HX  80
LADYSMITH      CLOUDY    80  66  62 S13       30.00S HX  82
EAU CLAIRE     CLOUDY    75  68  78 S10       29.95S
MENOMONIE      RAIN      73  69  87 SE9       29.94F
NEW RICHMOND   PTSUNNY   76  67  76 SE13G18   29.92F
OSCEOLA        CLOUDY    78  67  68 SE10      29.94F HX  80
$$

WIZ003>005-009-010-017-018-211800-
NORTH CENTRAL WISCONSIN

CITY           SKY/WX    TMP DP  RH WIND       PRES   REMARKS
MANITOWISH WTR CLOUDY    80  65  60 SW9       30.00S HX  81
ARBOR VITAE    CLOUDY    80  64  59 SW9       30.00S HX  81
WOODRUFF       CLOUDY    80  64  59 SW9       30.00S HX  81
RHINELANDER    CLOUDY    79  66  64 SW7       30.01F HX  81
EAGLE RIVER    CLOUDY    81  61  51 S5        30.00F HX  81
LAND O LAKES   MOSUNNY   79  61  53 CALM      30.02S HX  80
PHILLIPS       CLOUDY    78  66  68 S6        29.99S
TOMAHAWK         N/A     78  66  67 CALM      30.01S HX  80
MEDFORD        CLOUDY    77  65  65 S14       30.00S
MERRILL        CLOUDY    79  67  66 SW6       30.00F HX  81
$$

WIZ029-030-035-036-043>047-211800-
CENTRAL WISCONSIN

CITY           SKY/WX    TMP DP  RH WIND       PRES   REMARKS
WAUSAU         CLOUDY    79  64  60 S10       29.98F HX  81
MOSINEE        PTSUNNY   79  66  65 S8        30.01S HX  81
MARSHFIELD     CLOUDY    76  65  68 S7        30.00S
STEVENS POINT  CLOUDY    77  64  64 S7        30.00F
WAUPACA        CLOUDY    80  69  68 CALM      29.99F HX  82
WAUTOMA        CLOUDY    76  72  87 CALM      29.99F
WISC RAPIDS    PTSUNNY   77  68  73 SW6       30.00F
CAMP DOUGLAS   LGT RAIN  73  72  94 SW6       29.99R
$$

WIZ011>013-019>022-031-037>040-048>050-211800-
NORTHEAST WISCONSIN

CITY           SKY/WX    TMP DP  RH WIND       PRES   REMARKS
ANTIGO         PTSUNNY   77  65  65 S7        30.02F
SHAWANO        CLOUDY    83  66  57 CALM      29.97F HX  85
OCONTO         PTSUNNY   83  64  52 SW6       29.97S HX  84
STURGEON BAY     N/A     83  64  52 SW5       29.98F HX  84
GREEN BAY      PTSUNNY   82  69  64 S5        29.97F HX  85
MANITOWOC      CLOUDY    84  60  44 SE5       29.98F HX  84
APPLETON       CLOUDY    81  59  47 S7        29.98F HX  81
CLINTONVILLE   CLOUDY    81  64  57 S5        29.98F HX  82
OSHKOSH        CLOUDY    81  69  67 SW6       29.98F HX  84
$$

WIZ032>034-041-042-053>061-211800-
SOUTHWEST WISCONSIN

CITY           SKY/WX    TMP DP  RH WIND       PRES   REMARKS
LA CROSSE      RAIN      73  71  93 S7        29.98R FOG
SPARTA         LGT RAIN  68  68  98 S5        29.99F
VIROQUA        CLOUDY    69  69 100 SW5       30.02F
BOSCOBEL       LGT RAIN  72  70  93 CALM      30.00R FOG
PRAIRIE DU CHI HVY RAIN  71  69  93 CALM      29.99S
PLATTEVILLE    CLOUDY    75  74  96 E6        29.99F
$$

WIZ056-057-062-063-064-067-068-211800-
SOUTH CENTRAL WISCONSIN

CITY           SKY/WX    TMP DP  RH WIND       PRES   REMARKS
REEDSBURG      LGT RAIN  72  72 100 CALM      29.98F
BARABOO/DELLS  LGT RAIN  74  69  84 CALM      29.99F
LONE ROCK      LGT RAIN  73  72  96 SW3       29.98S FOG
MINERAL POINT  CLOUDY    75  73  94 CALM      30.00F
MADISON        CLOUDY    78  70  76 SE6       29.97F HX  80
MIDDLETON      CLOUDY    79  72  78 S3        29.99F HX  82
WATERTOWN      CLOUDY    79  73  80 SE6       29.98F HX  83
MONROE         CLOUDY    79  72  78 S9        29.98F HX  82
JANESVILLE     PTSUNNY   82  73  74 SE10      29.98S HX  88
$$

WIZ051-052-058>065-066-070>072-211800-
SOUTHEAST WISCONSIN

CITY           SKY/WX    TMP DP  RH WIND       PRES   REMARKS
MILWAUKEE      CLOUDY    83  73  72 S7        30.00F HX  89
WAUKESHA       MOSUNNY   79  70  73 S8        30.01F HX  81
MILWAUKEE/TIMM MOSUNNY   82  66  57 S10       30.01F HX  85
RACINE         CLOUDY    79  72  79 SE9       30.01F HX  82
KENOSHA        CLOUDY    83  71  67 S7        30.00F HX  87
FOND DU LAC    PTSUNNY   81  66  60 S6        29.99F HX  83
SHEBOYGAN      CLOUDY    83  68  60 S8        29.98F HX  86
WEST BEND      CLOUDY    81  66  61 S8        30.00F HX  83
JUNEAU         PTSUNNY   78  70  75 SE5       30.00F HX  81
$$

LSZ147-162-211800-
LAKE SUPERIOR

STATION/POSITION TIME  TEMP    WIND        PRES    WAVE
                       AIR SEA DIR/SP/G            HT/PER
                 (UTC) (F)     (DEG/KT/KT) (MB)    (FT/S)
W MID LAKE BUOY  1650   57 48  120/  4/  4 1015.3R   0
DEVILS ISLAND    1600   68     130/  3/  5 1014.1S
SAXON HARBOR     1640   69      40/  1/  3 1013.9S
$$

LMZ867-665-643>646-211800-
LAKE MICHIGAN

STATION/POSITION TIME  TEMP    WIND        PRES    WAVE
                       AIR SEA DIR/SP/G            HT/PER
                 (UTC) (F)     (DEG/KT/KT) (MB)    (FT/S)
CHAMBERS ISLAND  1640   79     180/  4/  8 1014.6R
S GREEN BAY BUOY 1700   76 74  180/  2/  4 1014.7
N MID LAKE BUOY  1650   67 68  180/  2/  2 1015.8R   1/ 5
NORTHPORT PIER   1640   73     350/  4/  7 1014.9R
KEWAUNEE LAKESHO 1648   72     180/  6/  7 1014.5F
SHEBOYGAN LAKESH 1700   73     170/ 14/ 14 1014.8F
PORT WASHINGTON  1640   78     180/  6/  7 1016.9R
ATWATER BUOY     1509   72 68   CALM  /  2 1015.8R
MILWAUKEE LAKESH 1650   74     140/ 10/ 11   N/A
S MID LAKE BUOY  1550   72 71  200/  4/  4 1016.2R   0
KENOSHA   LAKESH 1700   77     150/ 11/ 12 1015.2
$$

TC  - TEMPERATURE IN CELSIUS
VSB - VISIBILITY IN STATUTE MILES
WCI - WIND CHILL INDEX
HX  - HEAT INDEX





USA.gov is the U.S. government's official web portal to all federal, state and local government web resources and services.